| time (UTC) | temp C | wind direction | speed KPH | gust KPH | rain 1hr cm | rain 24hr cm | rain mn cm | humidity % | barometer mb |
| 20260510204507 | 18 | 198 | 11.3 | 19.3 | 0.00 | 0.00 | 0.00 | 41 | 700.5 |
| 20260510203451 | 18 | 175 | 11.3 | 19.3 | 0.00 | 0.00 | 0.00 | 42 | 693.4 |
| 20260510202435 | 18 | 213 | 12.9 | 19.3 | 0.00 | 0.00 | 0.00 | 45 | 786.3 |
| 20260510201418 | 18 | 194 | 9.7 | 19.3 | 0.00 | 0.00 | 0.00 | 45 | 758.0 |
| 20260510194258 | 18 | 205 | 9.7 | 22.5 | 0.00 | 0.00 | 0.00 | 42 | 736.1 |
| 20260510193241 | 18 | 153 | 9.7 | 22.5 | 0.00 | 0.00 | 0.00 | 42 | 617.3 |
| 20260510192740 | 18 | 98 | 11.3 | 22.5 | 0.00 | 0.00 | 0.00 | 44 | 631.0 |
| 20260510192239 | 18 | 193 | 9.7 | 22.5 | 0.00 | 0.00 | 0.00 | 45 | 725.9 |
| 20260510191738 | 18 | 207 | 14.5 | 22.5 | 0.00 | 0.00 | 0.00 | 42 | 790.6 |
| 20260510190721 | 18 | 248 | 12.9 | 24.1 | 0.00 | 0.00 | 0.00 | 42 | 811.4 |
| 20260510190220 | 18 | 217 | 9.7 | 24.1 | 0.00 | 0.00 | 0.00 | 42 | 805.9 |
| 20260510185719 | 18 | 231 | 12.9 | 24.1 | 0.00 | 0.00 | 0.00 | 43 | 850.1 |
| 20260510185219 | 18 | 254 | 16.1 | 29.0 | 0.00 | 0.00 | 0.00 | 41 | 864.2 |
| 20260510183646 | 18 | 246 | 11.3 | 24.1 | 0.00 | 0.00 | 0.00 | 43 | 839.4 |
| 20260510182628 | 18 | 234 | 17.7 | 24.1 | 0.00 | 0.00 | 0.00 | 41 | 781.4 |
| 20260510181611 | 18 | 195 | 12.9 | 24.1 | 0.00 | 0.00 | 0.00 | 45 | 718.3 |
| 20260510181110 | 18 | 195 | 12.9 | 25.7 | 0.00 | 0.00 | 0.00 | 41 | 710.1 |
| 20260510180609 | 18 | 199 | 16.1 | 30.6 | 0.00 | 0.00 | 0.00 | 40 | 691.3 |
| 20260510173447 | 18 | 215 | 14.5 | 29.0 | 0.00 | 0.00 | 0.00 | 42 | 770.9 |
| 20260510172946 | 18 | 225 | 17.7 | 29.0 | 0.00 | 0.00 | 0.00 | 40 | 766.4 |
| 20260510172446 | 18 | 223 | 16.1 | 30.6 | 0.00 | 0.00 | 0.00 | 39 | 737.0 |
| 20260510171946 | 18 | 187 | 19.3 | 30.6 | 0.00 | 0.00 | 0.00 | 40 | 702.6 |
| 20260510171445 | 18 | 176 | 16.1 | 22.5 | 0.00 | 0.00 | 0.00 | 39 | 658.1 |
| 20260510170430 | 18 | 186 | 12.9 | 22.5 | 0.00 | 0.00 | 0.00 | 42 | 640.3 |
| 20260510165933 | 17 | 172 | 14.5 | 24.1 | 0.00 | 0.00 | 0.00 | 43 | 600.8 |
| 20260510164910 | 17 | 141 | 11.3 | 25.7 | 0.00 | 0.00 | 0.00 | 43 | 600.1 |
| 20260510163338 | 18 | 132 | 14.5 | 25.7 | 0.00 | 0.00 | 0.00 | 41 | 574.0 |
| 20260510162321 | 18 | 57 | 12.9 | 32.2 | 0.00 | 0.00 | 0.00 | 39 | 608.5 |
| 20260510161820 | 17 | 205 | 17.7 | 32.2 | 0.00 | 0.00 | 0.00 | 39 | 745.9 |
| 20260510161319 | 18 | 196 | 12.9 | 29.0 | 0.00 | 0.00 | 0.00 | 41 | 751.2 |
| 20260510160302 | 17 | 181 | 17.7 | 30.6 | 0.00 | 0.00 | 0.00 | 40 | 705.9 |
| 20260510155802 | 18 | 169 | 14.5 | 25.7 | 0.00 | 0.00 | 0.00 | 40 | 723.3 |
| 20260510153712 | 17 | 180 | 16.1 | 24.1 | 0.00 | 0.00 | 0.00 | 44 | 662.0 |
| 20260510153211 | 17 | 166 | 14.5 | 24.1 | 0.00 | 0.00 | 0.00 | 45 | 659.0 |
| 20260510152711 | 16 | 145 | 11.3 | 20.9 | 0.00 | 0.00 | 0.00 | 47 | 635.9 |
| 20260510151653 | 16 | 175 | 14.5 | 20.9 | 0.00 | 0.00 | 0.00 | 46 | 695.5 |
| 20260510151153 | 16 | 184 | 12.9 | 20.9 | 0.00 | 0.00 | 0.00 | 46 | 697.3 |
| 20260510150651 | 16 | 183 | 12.9 | 20.9 | 0.00 | 0.00 | 0.00 | 46 | 695.0 |
| 20260510150150 | 16 | 202 | 11.3 | 20.9 | 0.00 | 0.00 | 0.00 | 47 | 677.2 |
| 20260510145650 | 16 | 168 | 11.3 | 20.9 | 0.00 | 0.00 | 0.00 | 49 | 652.9 |
| 20260510145149 | 15 | 165 | 12.9 | 20.9 | 0.00 | 0.00 | 0.00 | 47 | 654.9 |
| 20260510144648 | 15 | 163 | 8.0 | 20.9 | 0.00 | 0.00 | 0.00 | 49 | 680.3 |
| 20260510143633 | 15 | 178 | 8.0 | 22.5 | 0.00 | 0.00 | 0.00 | 47 | 692.3 |
| 20260510142102 | 15 | 169 | 11.3 | 22.5 | 0.00 | 0.00 | 0.00 | 48 | 656.3 |
| 20260510141044 | 15 | 148 | 9.7 | 22.5 | 0.00 | 0.00 | 0.00 | 51 | 638.7 |
| 20260510140544 | 15 | 146 | 9.7 | 22.5 | 0.00 | 0.00 | 0.00 | 51 | 660.3 |
| 20260510135528 | 15 | 149 | 12.9 | 22.5 | 0.00 | 0.00 | 0.00 | 48 | 664.5 |
| 20260510135027 | 15 | 191 | 11.3 | 22.5 | 0.00 | 0.00 | 0.00 | 50 | 726.1 |
| 20260510133455 | 15 | 179 | 11.3 | 25.7 | 0.00 | 0.00 | 0.00 | 49 | 695.9 |
| 20260510132438 | 15 | 178 | 12.9 | 25.7 | 0.00 | 0.00 | 0.00 | 50 | 661.8 |
| 20260510131938 | 15 | 162 | 12.9 | 25.7 | 0.00 | 0.00 | 0.00 | 50 | 663.4 |
| 20260510130922 | 15 | 162 | 12.9 | 25.7 | 0.00 | 0.00 | 0.00 | 51 | 663.1 |
| 20260510125905 | 15 | 172 | 14.5 | 24.1 | 0.00 | 0.00 | 0.00 | 52 | 668.4 |
| 20260510125405 | 15 | 165 | 12.9 | 24.1 | 0.00 | 0.00 | 0.00 | 51 | 657.7 |
| 20260510124904 | 15 | 159 | 12.9 | 25.7 | 0.00 | 0.00 | 0.00 | 51 | 635.1 |
| 20260510124403 | 15 | 151 | 12.9 | 25.7 | 0.00 | 0.00 | 0.00 | 52 | 612.7 |
| 20260510123346 | 15 | 141 | 12.9 | 22.5 | 0.00 | 0.00 | 0.00 | 53 | 585.6 |
| 20260510122845 | 15 | 152 | 11.3 | 25.7 | 0.00 | 0.00 | 0.00 | 54 | 576.0 |
| 20260510121828 | 15 | 129 | 12.9 | 22.5 | 0.00 | 0.00 | 0.00 | 54 | 558.6 |
| 20260510121327 | 15 | 131 | 16.1 | 22.5 | 0.00 | 0.00 | 0.00 | 55 | 573.7 |
| 20260510120826 | 14 | 135 | 12.9 | 22.5 | 0.00 | 0.00 | 0.00 | 55 | 598.3 |
| 20260510120325 | 14 | 168 | 9.7 | 22.5 | 0.00 | 0.00 | 0.00 | 55 | 630.8 |
| 20260510115824 | 14 | 163 | 12.9 | 22.5 | 0.00 | 0.00 | 0.00 | 54 | 632.1 |
| 20260510114807 | 14 | 163 | 12.9 | 17.7 | 0.00 | 0.00 | 0.00 | 55 | 642.3 |
| 20260510114307 | 14 | 147 | 9.7 | 17.7 | 0.00 | 0.00 | 0.00 | 56 | 643.7 |
| 20260510112735 | 14 | 152 | 11.3 | 17.7 | 0.00 | 0.00 | 0.00 | 56 | 619.1 |
| 20260510112234 | 14 | 155 | 11.3 | 17.7 | 0.00 | 0.00 | 0.00 | 58 | 605.8 |
| 20260510111217 | 15 | 131 | 11.3 | 17.7 | 0.00 | 0.00 | 0.00 | 58 | 602.0 |
| 20260510110200 | 15 | 159 | 9.7 | 17.7 | 0.00 | 0.00 | 0.00 | 59 | 603.4 |
| 20260510105658 | 15 | 139 | 8.0 | 17.7 | 0.00 | 0.00 | 0.00 | 60 | 587.0 |
| 20260510105157 | 15 | 133 | 9.7 | 17.7 | 0.00 | 0.00 | 0.00 | 60 | 565.0 |
| 20260510103111 | 15 | 141 | 9.7 | 17.7 | 0.00 | 0.00 | 0.00 | 65 | 556.7 |
| 20260510102610 | 15 | 129 | 8.0 | 17.7 | 0.00 | 0.00 | 0.00 | 65 | 587.0 |
| 20260510102109 | 15 | 130 | 8.0 | 17.7 | 0.00 | 0.00 | 0.00 | 65 | 599.5 |
| 20260510101609 | 15 | 150 | 8.0 | 17.7 | 0.00 | 0.00 | 0.00 | 66 | 619.3 |
| 20260510101108 | 15 | 152 | 6.4 | 17.7 | 0.00 | 0.00 | 0.00 | 66 | 615.1 |
| 20260510100607 | 15 | 147 | 8.0 | 17.7 | 0.00 | 0.00 | 0.00 | 66 | 605.2 |
| 20260510095552 | 15 | 140 | 8.0 | 17.7 | 0.00 | 0.00 | 0.00 | 67 | 578.3 |
| 20260510095050 | 15 | 144 | 8.0 | 17.7 | 0.00 | 0.00 | 0.00 | 67 | 577.6 |
| 20260510094549 | 15 | 138 | 6.4 | 17.7 | 0.00 | 0.00 | 0.00 | 67 | 565.7 |
| 20260510094049 | 15 | 135 | 6.4 | 17.7 | 0.00 | 0.00 | 0.00 | 67 | 562.1 |
| 20260510093548 | 15 | 145 | 8.0 | 17.7 | 0.00 | 0.00 | 0.00 | 67 | 547.8 |
| 20260510092533 | 16 | 107 | 8.0 | 17.7 | 0.00 | 0.00 | 0.00 | 67 | 531.2 |
| 20260510091516 | 16 | 141 | 9.7 | 17.7 | 0.00 | 0.00 | 0.00 | 66 | 550.3 |
| 20260510083839 | 17 | 142 | 6.4 | 17.7 | 0.00 | 0.00 | 0.00 | 63 | 619.6 |
| 20260510083338 | 17 | 141 | 4.8 | 17.7 | 0.00 | 0.00 | 0.00 | 63 | 603.8 |
| 20260510082837 | 17 | 166 | 8.0 | 17.7 | 0.00 | 0.00 | 0.00 | 63 | 598.1 |
| 20260510081305 | 17 | 165 | 9.7 | 17.7 | 0.00 | 0.00 | 0.00 | 64 | 571.8 |
| 20260510073628 | 17 | 121 | 4.8 | 17.7 | 0.00 | 0.00 | 0.00 | 65 | 547.9 |
| 20260510073127 | 17 | 129 | 4.8 | 17.7 | 0.00 | 0.00 | 0.00 | 65 | 554.4 |
| 20260510072110 | 17 | 110 | 3.2 | 17.7 | 0.00 | 0.00 | 0.00 | 64 | 553.6 |
| 20260510071609 | 17 | 136 | 6.4 | 17.7 | 0.00 | 0.00 | 0.00 | 64 | 572.2 |
| 20260510070553 | 18 | 130 | 6.4 | 17.7 | 0.00 | 0.00 | 0.00 | 65 | 524.9 |
| 20260510065536 | 18 | 47 | 6.4 | 17.7 | 0.00 | 0.00 | 0.00 | 66 | 446.6 |
| 20260510064519 | 18 | 114 | 4.8 | 17.7 | 0.00 | 0.00 | 0.00 | 67 | 531.4 |
| 20260510061914 | 16 | 111 | 0.0 | 24.1 | 0.00 | 0.00 | 0.00 | 79 | 577.3 |
| 20260510055825 | 16 | 147 | 1.6 | 24.1 | 0.00 | 0.00 | 0.00 | 80 | 521.6 |
| 20260510054809 | 16 | 106 | 0.0 | 24.1 | 0.00 | 0.00 | 0.00 | 79 | 489.2 |
| 20260510053752 | 17 | 141 | 4.8 | 24.1 | 0.00 | 0.00 | 0.00 | 78 | 511.9 |
| 20260510053251 | 17 | 101 | 1.6 | 24.1 | 0.00 | 0.00 | 0.00 | 76 | 479.5 |
| 20260510052750 | 17 | 126 | 0.0 | 24.1 | 0.00 | 0.00 | 0.00 | 76 | 522.3 |
| 20260510052249 | 17 | 137 | 1.6 | 24.1 | 0.00 | 0.00 | 0.00 | 78 | 490.6 |
| 20260510051747 | 17 | 102 | 0.0 | 24.1 | 0.00 | 0.00 | 0.00 | 79 | 447.7 |
| 20260510050213 | 17 | 82 | 0.0 | 24.1 | 0.00 | 0.00 | 0.00 | 77 | 434.9 |
| 20260510045156 | 17 | 125 | 0.0 | 24.1 | 0.00 | 0.00 | 0.00 | 77 | 488.6 |
| 20260510042553 | 17 | 127 | 0.0 | 24.1 | 0.00 | 0.00 | 0.00 | 76 | 497.6 |
| 20260510041536 | 17 | 123 | 0.0 | 24.1 | 0.00 | 0.00 | 0.00 | 75 | 475.2 |
| 20260510040003 | 18 | 85 | 0.0 | 24.1 | 0.00 | 0.00 | 0.00 | 73 | 466.1 |
| 20260510035502 | 18 | 117 | 0.0 | 24.1 | 0.00 | 0.00 | 0.00 | 73 | 503.7 |
| 20260510033413 | 19 | 134 | 0.0 | 24.1 | 0.00 | 0.00 | 0.00 | 68 | 525.0 |
| 20260510032912 | 19 | 123 | 0.0 | 24.1 | 0.00 | 0.00 | 0.00 | 68 | 506.6 |
| 20260510032411 | 19 | 110 | 0.0 | 24.1 | 0.00 | 0.00 | 0.00 | 65 | 508.5 |
| 20260510031910 | 20 | 130 | 0.0 | 24.1 | 0.00 | 0.00 | 0.00 | 64 | 539.9 |
| 20260510030854 | 21 | 140 | 1.6 | 24.1 | 0.00 | 0.00 | 0.00 | 61 | 548.5 |
| 20260510024249 | 21 | 149 | 6.4 | 24.1 | 0.00 | 0.00 | 0.00 | 60 | 559.7 |
| 20260510022717 | 21 | 112 | 1.6 | 24.1 | 0.00 | 0.00 | 0.00 | 60 | 478.2 |
| 20260510021700 | 22 | 83 | 1.6 | 24.1 | 0.00 | 0.00 | 0.00 | 57 | 484.6 |
| 20260510020643 | 22 | 90 | 1.6 | 24.1 | 0.00 | 0.00 | 0.00 | 59 | 545.3 |
| 20260510015110 | 20 | 2 | 8.0 | 24.1 | 0.00 | 0.00 | 0.00 | 72 | 1222.1 |
| 20260510014610 | 21 | 0 | 0.0 | 24.1 | 0.00 | 0.00 | 0.00 | 69 | 1235.1 |
| 20260510014110 | 21 | 0 | 0.0 | 24.1 | 0.00 | 0.00 | 0.00 | 69 | 1234.8 |
| 20260510013053 | 22 | 0 | 0.0 | 24.1 | 0.00 | 0.00 | 0.00 | 68 | 1234.1 |
| 20260510010450 | 24 | 0 | 0.0 | 24.1 | 0.00 | 0.00 | 0.00 | 67 | 1229.9 |
| 20260510005949 | 25 | 0 | 0.0 | 24.1 | 0.00 | 0.00 | 0.00 | 65 | 1229.3 |
| 20260510004932 | 26 | 0 | 0.0 | 24.1 | 0.00 | 0.00 | 0.00 | 61 | 1233.0 |
| 20260510003915 | 26 | 0 | 0.0 | 24.1 | 0.00 | 0.00 | 0.00 | 62 | 1232.8 |
| 20260510003413 | 27 | 357 | 0.0 | 24.1 | 0.00 | 0.00 | 0.00 | 61 | 1233.3 |
| 20260510002357 | 27 | 0 | 0.0 | 24.1 | 0.00 | 0.00 | 0.00 | 56 | 1240.4 |
| 20260510001340 | 27 | 359 | 0.0 | 24.1 | 0.00 | 0.00 | 0.00 | 48 | 1233.0 |
| 20260510000840 | 27 | 358 | 0.0 | 24.1 | 0.00 | 0.00 | 0.00 | 49 | 1228.1 |
| 20260510000341 | 27 | 359 | 0.0 | 24.1 | 0.00 | 0.00 | 0.00 | 47 | 1226.5 |
| 20260509235322 | 27 | 355 | 1.6 | 24.1 | 0.00 | 0.00 | 0.00 | 41 | 1216.3 |
| 20260509234821 | 27 | 358 | 3.2 | 24.1 | 0.00 | 0.00 | 0.00 | 41 | 1213.3 |
| 20260509234320 | 27 | 358 | 1.6 | 24.1 | 0.00 | 0.00 | 0.00 | 42 | 1225.9 |
| 20260509233820 | 27 | 356 | 3.2 | 24.1 | 0.00 | 0.00 | 0.00 | 44 | 1217.3 |
| 20260509232804 | 27 | 340 | 3.2 | 24.1 | 0.00 | 0.00 | 0.00 | 43 | 1208.0 |
| 20260509232305 | 27 | 354 | 3.2 | 24.1 | 0.00 | 0.00 | 0.00 | 41 | 1217.4 |
| 20260509230729 | 28 | 350 | 6.4 | 24.1 | 0.00 | 0.00 | 0.00 | 40 | 1213.7 |
| 20260509230228 | 28 | 355 | 6.4 | 24.1 | 0.00 | 0.00 | 0.00 | 38 | 1215.1 |
| 20260509225727 | 28 | 352 | 6.4 | 24.1 | 0.00 | 0.00 | 0.00 | 38 | 1219.3 |
| 20260509225227 | 28 | 359 | 8.0 | 24.1 | 0.00 | 0.00 | 0.00 | 38 | 1223.9 |
| 20260509223139 | 28 | 356 | 6.4 | 24.1 | 0.00 | 0.00 | 0.00 | 38 | 1225.6 |
| 20260509222639 | 28 | 0 | 4.8 | 24.1 | 0.00 | 0.00 | 0.00 | 38 | 1226.6 |
| 20260509220036 | 28 | 346 | 8.0 | 24.1 | 0.00 | 0.00 | 0.00 | 40 | 1211.9 |
| 20260509215021 | 28 | 358 | 8.0 | 24.1 | 0.00 | 0.00 | 0.00 | 39 | 1217.3 |
| 20260509214005 | 29 | 356 | 11.3 | 24.1 | 0.00 | 0.00 | 0.00 | 35 | 1218.9 |
| 20260509213504 | 28 | 355 | 11.3 | 24.1 | 0.00 | 0.00 | 0.00 | 36 | 1214.9 |
| 20260509211416 | 30 | 356 | 9.7 | 24.1 | 0.00 | 0.00 | 0.00 | 35 | 1225.1 |